FW6151 Weather Reports


Display with metric or nautical units.
time (UTC)temp
F
wind
direction
speed
MPH
gust
MPH
rain 1hr
in
rain 24hr
in
rain mn
in
humidity
%
barometer
mb
20260510070521 59 196 0.0 0.0 0.00 0.00 0.00 77 1012.8
20260510070025 58 196 0.0 0.0 0.00 0.00 0.00 78 1012.7
20260510065521 58 196 0.0 0.0 0.00 0.00 0.00 79 1012.7
20260510065020 58 196 0.0 0.0 0.00 0.00 0.00 80 1012.6
20260510064545 57 259 0.0 0.0 0.00 0.00 0.00 80 1012.6
20260510064019 57 259 0.0 0.0 0.00 0.00 0.00 81 1012.6
20260510063518 56 259 0.0 0.0 0.00 0.00 0.00 81 1012.6
20260510063022 56 259 0.0 0.0 0.00 0.00 0.00 82 1012.6
20260510062518 56 259 0.0 0.0 0.00 0.00 0.00 83 1012.7
20260510062016 55 259 0.0 0.0 0.00 0.00 0.00 83 1012.7
20260510061531 55 259 0.0 0.0 0.00 0.00 0.00 83 1012.8
20260510061016 55 259 0.0 0.0 0.00 0.00 0.00 84 1012.7
20260510060515 55 259 0.0 0.0 0.00 0.00 0.00 84 1012.8
20260510060027 54 259 0.0 0.0 0.00 0.00 0.00 84 1012.8
20260510055513 54 259 0.0 0.0 0.00 0.00 0.00 85 1012.8
20260510055015 54 248 0.0 2.0 0.00 0.00 0.00 85 1012.9
20260510054512 53 248 0.0 2.0 0.00 0.00 0.00 85 1012.9
20260510054012 53 248 0.0 2.0 0.00 0.00 0.00 85 1012.9
20260510053516 53 311 0.0 0.0 0.00 0.00 0.00 85 1013.0
20260510053011 53 311 0.0 1.0 0.00 0.00 0.00 85 1012.9
20260510052512 53 311 0.0 2.0 0.00 0.00 0.00 85 1013.0
20260510052010 53 311 0.0 2.0 0.00 0.00 0.00 85 1012.9
20260510051509 53 320 0.0 1.0 0.00 0.00 0.00 85 1013.0
20260510051007 53 320 0.0 1.0 0.00 0.00 0.00 85 1013.1
20260510050505 52 320 0.0 1.0 0.00 0.00 0.00 85 1013.1
20260510050007 52 320 0.0 1.0 0.00 0.00 0.00 84 1013.0
20260510045506 52 320 0.0 2.0 0.00 0.00 0.00 84 1013.0
20260510045005 53 320 0.0 1.0 0.00 0.00 0.00 84 1013.1
20260510044505 53 320 0.0 1.0 0.00 0.00 0.00 84 1013.1
20260510044004 53 323 0.0 1.0 0.00 0.00 0.00 84 1013.1
20260510043504 53 323 0.0 1.0 0.00 0.00 0.00 84 1013.1
20260510043002 53 323 0.0 3.0 0.00 0.00 0.00 84 1013.1
20260510042601 53 322 1.0 3.0 0.00 0.00 0.00 84 1013.1
20260510042104 53 319 0.0 2.0 0.00 0.00 0.00 84 1013.1
20260510041610 53 319 0.0 4.0 0.00 0.00 0.00 84 1013.0
20260510041058 53 319 1.0 4.0 0.00 0.00 0.00 84 1013.1
20260510040601 53 319 0.0 1.0 0.00 0.00 0.00 84 1013.1
20260510040057 53 319 0.0 1.0 0.00 0.00 0.00 84 1013.2
20260510035556 53 319 0.0 2.0 0.00 0.00 0.00 84 1013.2
20260510035056 53 321 0.0 3.0 0.00 0.00 0.00 84 1013.2
20260510034603 53 321 1.0 4.0 0.00 0.00 0.00 84 1013.3
20260510034056 53 323 1.0 4.0 0.00 0.00 0.00 84 1013.3
20260510033558 53 326 1.0 4.0 0.00 0.00 0.00 84 1013.2
20260510033058 53 330 1.0 4.0 0.00 0.00 0.00 84 1013.2
20260510032556 53 333 1.0 3.0 0.00 0.00 0.00 84 1013.3
20260510032054 53 307 0.0 3.0 0.00 0.00 0.00 84 1013.4
20260510031603 53 309 0.0 2.0 0.00 0.00 0.00 84 1013.4
20260510031054 53 232 0.0 2.0 0.00 0.00 0.00 84 1013.4
20260510030554 53 287 0.0 2.0 0.00 0.00 0.00 84 1013.5
20260510030058 53 227 0.0 2.0 0.00 0.00 0.00 84 1013.5
20260510025551 53 266 0.0 0.0 0.00 0.00 0.00 84 1013.5
20260510025053 53 269 0.0 0.0 0.00 0.00 0.00 84 1013.6
20260510024552 53 268 0.0 0.0 0.00 0.00 0.00 84 1013.6
20260510024049 53 271 0.0 1.0 0.00 0.00 0.00 84 1013.7
20260510023553 54 271 0.0 1.0 0.00 0.00 0.00 84 1013.7
20260510023049 54 286 0.0 1.0 0.00 0.00 0.00 84 1013.7
20260510022552 54 286 0.0 1.0 0.00 0.00 0.00 84 1013.7
20260510022051 54 298 0.0 1.0 0.00 0.00 0.00 84 1013.7
20260510021548 54 298 0.0 1.0 0.00 0.00 0.00 84 1013.7
20260510021047 54 298 0.0 1.0 0.00 0.00 0.00 83 1013.7
20260510020547 54 298 0.0 1.0 0.00 0.00 0.00 84 1013.6
20260510020047 54 298 0.0 1.0 0.00 0.00 0.00 84 1013.7
20260510015547 54 301 0.0 1.0 0.00 0.00 0.00 84 1013.6
20260510015046 54 302 0.0 3.0 0.00 0.00 0.00 84 1013.7
20260510014545 54 302 0.0 3.0 0.00 0.00 0.00 83 1013.7
20260510014045 54 300 0.0 0.0 0.00 0.00 0.00 84 1013.8
20260510013545 54 303 0.0 0.0 0.00 0.00 0.00 84 1013.8
20260510013051 54 309 0.0 2.0 0.00 0.00 0.00 84 1013.9
20260510012544 54 309 0.0 2.0 0.00 0.00 0.00 83 1014.0
20260510012044 54 309 1.0 2.0 0.00 0.00 0.00 83 1014.0
20260510011545 54 308 0.0 2.0 0.00 0.00 0.00 83 1014.0
20260510011043 54 312 0.0 0.0 0.00 0.00 0.00 83 1014.1
20260510010542 54 312 0.0 0.0 0.00 0.00 0.00 83 1014.1
20260510010042 55 312 0.0 0.0 0.00 0.00 0.00 82 1014.1
20260510005541 55 312 0.0 0.0 0.00 0.00 0.00 82 1014.1
20260510005041 55 312 0.0 0.0 0.00 0.00 0.00 81 1014.2
20260510004540 55 312 0.0 0.0 0.00 0.00 0.00 82 1014.1
20260510004039 55 312 0.0 0.0 0.00 0.00 0.00 81 1014.1
20260510003547 55 312 0.0 0.0 0.00 0.00 0.00 81 1014.1
20260510003048 55 312 0.0 0.0 0.00 0.00 0.00 81 1014.2
20260510002536 56 312 0.0 0.0 0.00 0.00 0.00 81 1014.2
20260510002036 56 312 0.0 0.0 0.00 0.00 0.00 80 1014.3
20260510001535 56 312 0.0 0.0 0.00 0.00 0.00 80 1014.3
20260510001034 56 312 0.0 0.0 0.00 0.00 0.00 79 1014.3
20260510000535 56 312 0.0 0.0 0.00 0.00 0.00 79 1014.3
20260510000033 57 312 0.0 0.0 0.00 0.00 0.00 79 1014.4
20260509235532 57 312 0.0 0.0 0.00 0.00 0.00 78 1014.4
20260509235031 57 312 0.0 0.0 0.00 0.00 0.00 78 1014.5
20260509234544 57 312 0.0 0.0 0.00 0.00 0.00 78 1014.3
20260509234033 58 312 0.0 0.0 0.00 0.00 0.00 78 1014.5
20260509233528 58 312 0.0 0.0 0.00 0.00 0.00 77 1014.5
20260509233039 58 312 0.0 0.0 0.00 0.00 0.00 77 1014.6
20260509232527 58 312 0.0 0.0 0.00 0.00 0.00 76 1014.6
20260509232028 58 312 0.0 0.0 0.00 0.00 0.00 76 1014.6
20260509231529 58 312 0.0 0.0 0.00 0.00 0.00 75 1014.6
20260509231025 58 312 0.0 0.0 0.00 0.00 0.00 75 1014.6
20260509230525 59 312 0.0 0.0 0.00 0.00 0.00 75 1014.5
20260509230025 59 312 0.0 0.0 0.00 0.00 0.00 75 1014.5
20260509225525 59 312 0.0 0.0 0.00 0.00 0.00 75 1014.5
20260509225023 59 312 0.0 0.0 0.00 0.00 0.00 75 1014.6
20260509224525 59 315 0.0 0.0 0.00 0.00 0.00 75 1014.6
20260509224023 59 315 0.0 0.0 0.00 0.00 0.00 75 1014.6
20260509223522 59 315 0.0 0.0 0.00 0.00 0.00 75 1014.7
20260509223023 59 315 0.0 0.0 0.00 0.00 0.00 75 1014.8
20260509222521 59 315 0.0 0.0 0.00 0.00 0.00 75 1014.7
20260509222019 59 315 0.0 0.0 0.00 0.00 0.00 75 1014.9
20260509221518 59 315 0.0 0.0 0.00 0.00 0.00 74 1014.9
20260509221019 59 315 0.0 0.0 0.00 0.00 0.00 74 1014.9
20260509220520 60 315 0.0 0.0 0.00 0.00 0.00 74 1015.0
20260509220020 60 315 0.0 0.0 0.00 0.00 0.00 73 1015.0
20260509215514 60 315 0.0 0.0 0.00 0.00 0.00 73 1014.9
20260509215018 60 315 0.0 0.0 0.00 0.00 0.00 73 1014.9
20260509214514 60 315 0.0 0.0 0.00 0.00 0.00 73 1014.9
20260509214014 60 315 0.0 0.0 0.00 0.00 0.00 72 1014.9
20260509213522 61 315 0.0 0.0 0.00 0.00 0.00 72 1015.0
20260509213014 61 315 0.0 0.0 0.00 0.00 0.00 72 1014.9
20260509212513 61 315 0.0 0.0 0.00 0.00 0.00 71 1014.9
20260509212014 61 315 0.0 0.0 0.00 0.00 0.00 71 1014.8
20260509211513 61 315 0.0 0.0 0.00 0.00 0.00 71 1014.9
20260509211013 62 315 0.0 0.0 0.00 0.00 0.00 70 1015.0
20260509210513 62 315 0.0 0.0 0.00 0.00 0.00 69 1014.9
20260509210013 62 315 0.0 0.0 0.00 0.00 0.00 68 1014.8
20260509205513 62 315 0.0 0.0 0.00 0.00 0.00 68 1014.9
20260509205012 63 315 0.0 0.0 0.00 0.00 0.00 67 1014.8
20260509204512 63 315 0.0 1.0 0.00 0.00 0.00 66 1014.8
20260509204017 63 315 0.0 3.0 0.00 0.00 0.00 66 1014.7
20260509203511 64 315 0.0 2.0 0.00 0.00 0.00 65 1014.7
20260509203012 64 315 0.0 0.0 0.00 0.00 0.00 64 1014.7
20260509202512 64 315 0.0 0.0 0.00 0.00 0.00 63 1014.8
20260509202013 64 315 0.0 0.0 0.00 0.00 0.00 63 1014.7
20260509201513 65 315 0.0 0.0 0.00 0.00 0.00 63 1014.8
20260509201011 65 315 0.0 0.0 0.00 0.00 0.00 62 1014.7
20260509200517 65 315 0.0 0.0 0.00 0.00 0.00 62 1014.6
20260509200011 66 315 0.0 0.0 0.00 0.00 0.00 60 1014.5
20260509195511 66 315 0.0 0.0 0.00 0.00 0.00 59 1014.5
20260509195015 67 315 0.0 0.0 0.00 0.00 0.00 59 1014.4
20260509194510 67 315 0.0 0.0 0.00 0.00 0.00 58 1014.5
20260509194010 67 315 0.0 0.0 0.00 0.00 0.00 57 1014.5
20260509193512 68 315 0.0 0.0 0.00 0.00 0.00 56 1014.4
20260509193011 68 315 0.0 0.0 0.00 0.00 0.00 55 1014.4
20260509192510 69 315 0.0 0.0 0.00 0.00 0.00 54 1014.3
20260509192012 69 315 0.0 0.0 0.00 0.00 0.00 54 1014.5
20260509191512 69 315 0.0 0.0 0.00 0.00 0.00 53 1014.3
20260509191013 70 315 0.0 0.0 0.00 0.00 0.00 53 1014.3
20260509190511 70 315 0.0 0.0 0.00 0.00 0.00 52 1014.3
20260509190017 70 315 0.0 0.0 0.00 0.00 0.00 51 1014.3
20260509185510 70 315 0.0 2.0 0.00 0.00 0.00 51 1014.2
20260509185009 70 315 0.0 4.0 0.00 0.00 0.00 51 1014.2
20260509184520 71 315 0.0 5.0 0.00 0.00 0.00 50 1014.2
20260509184009 71 311 2.0 4.0 0.00 0.00 0.00 49 1014.2
20260509183509 71 325 0.0 4.0 0.00 0.00 0.00 49 1014.3
20260509183009 71 325 1.0 5.0 0.00 0.00 0.00 49 1014.4
20260509182510 71 335 0.0 6.0 0.00 0.00 0.00 48 1014.4
20260509182008 72 311 1.0 6.0 0.00 0.00 0.00 48 1014.4
20260509181508 72 327 2.0 5.0 0.00 0.00 0.00 47 1014.4
20260509181008 72 355 2.0 6.0 0.00 0.00 0.00 47 1014.3
20260509180507 72 309 3.0 6.0 0.00 0.00 0.00 47 1014.4
20260509180015 73 327 2.0 5.0 0.00 0.00 0.00 47 1014.4
20260509175515 73 333 2.0 6.0 0.00 0.00 0.00 47 1014.3
20260509175007 73 321 3.0 6.0 0.00 0.00 0.00 46 1014.3
20260509174507 73 184 1.0 6.0 0.00 0.00 0.00 47 1014.3
20260509174007 74 215 1.0 9.0 0.00 0.00 0.00 46 1014.3
20260509173513 74 335 2.0 4.0 0.00 0.00 0.00 46 1014.3
20260509173013 74 226 1.0 4.0 0.00 0.00 0.00 45 1014.3
20260509172507 74 301 1.0 9.0 0.00 0.00 0.00 45 1014.2
20260509172007 75 237 3.0 9.0 0.00 0.00 0.00 44 1014.3
20260509171514 75 216 2.0 8.0 0.00 0.00 0.00 44 1014.3
20260509171011 75 207 3.0 8.0 0.00 0.00 0.00 44 1014.2
20260509170506 75 312 1.0 6.0 0.00 0.00 0.00 45 1014.3
20260509170006 75 307 1.0 8.0 0.00 0.00 0.00 45 1014.2
20260509165504 75 32 3.0 9.0 0.00 0.00 0.00 44 1014.3
20260509165006 75 202 3.0 9.0 0.00 0.00 0.00 44 1014.4
20260509164505 75 189 1.0 5.0 0.00 0.00 0.00 44 1014.3
20260509164003 75 332 1.0 9.0 0.00 0.00 0.00 45 1014.3
20260509163503 75 222 2.0 9.0 0.00 0.00 0.00 44 1014.4
20260509163003 75 206 1.0 8.0 0.00 0.00 0.00 44 1014.5
20260509162503 75 222 1.0 8.0 0.00 0.00 0.00 43 1014.4
20260509162003 76 321 2.0 7.0 0.00 0.00 0.00 43 1014.5
20260509161502 75 328 2.0 8.0 0.00 0.00 0.00 43 1014.5
20260509161005 76 239 4.0 7.0 0.00 0.00 0.00 42 1014.7
20260509160502 76 207 2.0 6.0 0.00 0.00 0.00 42 1014.7
20260509160002 76 226 1.0 9.0 0.00 0.00 0.00 41 1014.7
20260509155501 77 207 1.0 4.0 0.00 0.00 0.00 41 1014.7
20260509155002 76 355 1.0 6.0 0.00 0.00 0.00 41 1014.7
20260509154501 77 303 2.0 7.0 0.00 0.00 0.00 41 1014.8
20260509154004 77 277 1.0 6.0 0.00 0.00 0.00 40 1014.7
20260509153501 77 221 1.0 6.0 0.00 0.00 0.00 39 1014.7
20260509153002 77 176 1.0 3.0 0.00 0.00 0.00 39 1014.7
20260509152502 77 176 1.0 5.0 0.00 0.00 0.00 39 1014.6
20260509152001 77 126 1.0 5.0 0.00 0.00 0.00 39 1014.6
20260509151615 77 152 1.0 5.0 0.00 0.00 0.00 37 1014.7
20260509151103 77 64 1.0 5.0 0.00 0.00 0.00 37 1014.7
20260509150559 77 15 1.0 3.0 0.00 0.00 0.00 37 1014.7
20260509150112 77 22 0.0 5.0 0.00 0.00 0.00 37 1014.7
20260509145559 77 196 2.0 5.0 0.00 0.00 0.00 37 1014.7
20260509145100 77 214 2.0 5.0 0.00 0.00 0.00 37 1014.8
20260509144603 77 193 1.0 4.0 0.00 0.00 0.00 37 1014.8
20260509144059 77 24 1.0 4.0 0.00 0.00 0.00 39 1014.8
20260509143558 76 271 0.0 8.0 0.00 0.00 0.00 39 1015.0
20260509143106 77 319 3.0 8.0 0.00 0.00 0.00 36 1015.1
20260509142556 78 23 0.0 6.0 0.00 0.00 0.00 38 1015.2
20260509142055 78 305 2.0 6.0 0.00 0.00 0.00 36 1015.2
20260509141555 77 29 1.0 9.0 0.00 0.00 0.00 37 1015.4
20260509141054 78 324 0.0 4.0 0.00 0.00 0.00 37 1015.5
20260509140552 77 12 1.0 6.0 0.00 0.00 0.00 37 1015.6
20260509140059 77 350 1.0 5.0 0.00 0.00 0.00 37 1015.7
20260509135552 77 317 1.0 5.0 0.00 0.00 0.00 37 1015.8
20260509135052 77 323 0.0 8.0 0.00 0.00 0.00 37 1015.9
20260509134553 77 25 2.0 8.0 0.00 0.00 0.00 37 1015.9
20260509134053 78 313 1.0 4.0 0.00 0.00 0.00 37 1016.0
20260509133550 78 189 1.0 3.0 0.00 0.00 0.00 38 1016.1
20260509133059 78 189 0.0 4.0 0.00 0.00 0.00 36 1016.2
20260509132549 78 189 0.0 4.0 0.00 0.00 0.00 39 1016.3
20260509132048 78 189 1.0 5.0 0.00 0.00 0.00 36 1016.4
20260509131548 77 350 0.0 5.0 0.00 0.00 0.00 38 1016.5
20260509131047 77 190 0.0 5.0 0.00 0.00 0.00 38 1016.5
20260509130546 77 26 1.0 4.0 0.00 0.00 0.00 37 1016.5
20260509130052 76 238 0.0 4.0 0.00 0.00 0.00 38 1016.6
20260509125544 76 319 1.0 9.0 0.00 0.00 0.00 38 1016.6
20260509125044 76 304 1.0 9.0 0.00 0.00 0.00 38 1016.7
20260509124553 77 191 1.0 8.0 0.00 0.00 0.00 40 1016.7
20260509124044 75 228 1.0 8.0 0.00 0.00 0.00 39 1016.6
20260509123544 76 190 1.0 7.0 0.00 0.00 0.00 37 1016.7
20260509123043 76 228 3.0 7.0 0.00 0.00 0.00 37 1016.8
20260509122542 76 36 1.0 10.0 0.00 0.00 0.00 38 1016.9
20260509122043 76 336 3.0 10.0 0.00 0.00 0.00 39 1016.9
20260509121554 76 224 0.0 5.0 0.00 0.00 0.00 37 1016.9
20260509121041 77 195 1.0 5.0 0.00 0.00 0.00 38 1017.1
20260509120540 77 348 2.0 5.0 0.00 0.00 0.00 38 1017.1
20260509120042 77 180 1.0 4.0 0.00 0.00 0.00 39 1017.2
20260509115538 76 180 0.0 4.0 0.00 0.00 0.00 36 1017.2
20260509115039 76 180 0.0 4.0 0.00 0.00 0.00 38 1017.2
20260509114552 75 180 0.0 6.0 0.00 0.00 0.00 40 1017.3
20260509114037 75 65 2.0 6.0 0.00 0.00 0.00 39 1017.4
20260509113537 75 308 1.0 5.0 0.00 0.00 0.00 40 1017.5
20260509113037 75 355 0.0 5.0 0.00 0.00 0.00 39 1017.5
20260509112536 75 327 1.0 5.0 0.00 0.00 0.00 40 1017.6
20260509112041 75 184 0.0 6.0 0.00 0.00 0.00 40 1017.6
20260509111533 74 19 0.0 7.0 0.00 0.00 0.00 44 1017.8
20260509111033 74 49 2.0 7.0 0.00 0.00 0.00 45 1017.8
20260509110531 73 317 0.0 5.0 0.00 0.00 0.00 44 1017.8
20260509110030 73 324 2.0 5.0 0.00 0.00 0.00 44 1018.0
20260509105529 73 184 1.0 8.0 0.00 0.00 0.00 46 1018.1
20260509105032 72 322 2.0 8.0 0.00 0.00 0.00 46 1018.1
20260509104528 73 215 1.0 6.0 0.00 0.00 0.00 47 1018.2
20260509104027 74 195 2.0 8.0 0.00 0.00 0.00 45 1018.2
20260509103526 75 186 0.0 2.0 0.00 0.00 0.00 48 1018.2
20260509103025 74 186 0.0 3.0 0.00 0.00 0.00 49 1018.2
20260509102525 73 186 0.0 3.0 0.00 0.00 0.00 52 1018.3
20260509102023 73 186 0.0 3.0 0.00 0.00 0.00 52 1018.3
20260509101524 72 168 0.0 5.0 0.00 0.00 0.00 51 1018.4
20260509101021 73 167 1.0 4.0 0.00 0.00 0.00 51 1018.4
20260509100519 72 167 0.0 3.0 0.00 0.00 0.00 54 1018.4
20260509100019 72 167 2.0 3.0 0.00 0.00 0.00 51 1018.4
20260509095518 71 167 0.0 0.0 0.00 0.00 0.00 52 1018.5
20260509095016 72 167 0.0 2.0 0.00 0.00 0.00 53 1018.6
20260509094521 71 167 0.0 3.0 0.00 0.00 0.00 52 1018.6
20260509094014 71 167 2.0 4.0 0.00 0.00 0.00 53 1018.7
20260509093513 71 168 0.0 5.0 0.00 0.00 0.00 55 1018.8
20260509093010 71 167 1.0 5.0 0.00 0.00 0.00 55 1018.7
20260509092514 70 146 0.0 4.0 0.00 0.00 0.00 57 1018.8
20260509092008 70 22 0.0 4.0 0.00 0.00 0.00 58 1018.8
20260509091510 70 22 0.0 3.0 0.00 0.00 0.00 58 1018.9
20260509091007 70 21 0.0 3.0 0.00 0.00 0.00 59 1018.9
20260509090506 69 21 1.0 3.0 0.00 0.00 0.00 60 1018.9
20260509090015 68 130 0.0 3.0 0.00 0.00 0.00 62 1019.0
20260509085503 68 130 0.0 4.0 0.00 0.00 0.00 63 1019.0
20260509085001 67 136 0.0 3.0 0.00 0.00 0.00 63 1019.0
20260509084606 67 136 0.0 4.0 0.00 0.00 0.00 64 1019.0
20260509084059 66 140 0.0 4.0 0.00 0.00 0.00 65 1019.0
20260509083557 65 117 0.0 6.0 0.00 0.00 0.00 67 1019.0
20260509083058 64 120 1.0 6.0 0.00 0.00 0.00 67 1019.1
20260509082556 64 146 0.0 3.0 0.00 0.00 0.00 68 1019.1
20260509082053 63 138 0.0 4.0 0.00 0.00 0.00 69 1019.1
20260509081552 63 139 2.0 4.0 0.00 0.00 0.00 69 1019.1
20260509081051 63 89 0.0 5.0 0.00 0.00 0.00 71 1019.2
20260509080549 62 53 1.0 5.0 0.00 0.00 0.00 72 1019.2
20260509080106 62 136 0.0 5.0 0.00 0.00 0.00 73 1019.2
20260509075548 61 136 2.0 5.0 0.00 0.00 0.00 75 1019.2
20260509075052 61 134 0.0 2.0 0.00 0.00 0.00 77 1019.3
20260509074545 60 135 0.0 4.0 0.00 0.00 0.00 77 1019.2
20260509074047 60 135 1.0 5.0 0.00 0.00 0.00 77 1019.3
20260509073542 59 129 1.0 4.0 0.00 0.00 0.00 78 1019.4
20260509073042 59 34 0.0 3.0 0.00 0.00 0.00 79 1019.4
20260509072542 59 33 1.0 3.0 0.00 0.00 0.00 79 1019.4
20260509072041 59 74 0.0 2.0 0.00 0.00 0.00 79 1019.4
20260509071541 59 74 0.0 2.0 0.00 0.00 0.00 80 1019.5
20260509071041 58 76 0.0 3.0 0.00 0.00 0.00 80 1019.5